Regional Weather Roundup
Issued by NWS

Home | Current Version | Previous Version | Graphics & Text | Print | Product List | Glossary On
Versions: 1 2 3 4 5 6 7 8 9 10 11 12 13 14 15 16 17 18 19 20 21 22 23 24 25 26 27 28 29 30 31 32 33 34 35 36 37 38 39 40 41 42 43 44 45 46 47 48 49 50
000
ASUS43 KMPX 231701
RWRMN
WEATHER ROUNDUP FOR MINNESOTA
NATIONAL WEATHER SERVICE TWIN CITIES/CHANHASSEN MN
1200 PM CDT SUN JUL 23 2017


NOTE: "FAIR" INDICATES FEW OR NO CLOUDS BELOW 12,000 FEET WITH NO
SIGNIFICANT WEATHER AND/OR OBSTRUCTIONS TO VISIBILITY. N/A MEANS
CURRENT SKY AND/OR WEATHER CONDITIONS ARE NOT AVAILABLE.

MNZ060>063-068>070-231800-
   Twin Cities Metro

CITY           SKY/WX    TMP DP  RH WIND       PRES   REMARKS
TWIN CITIES    CLOUDY    72  58  61 N10       29.93R
ST PAUL        PTSUNNY   73  61  65 N9        29.92S
CRYSTAL        CLOUDY    72  57  59 NW9       29.92R
BLAINE         PTSUNNY   73  61  64 W7        29.93R
LAKEVILLE      CLOUDY    70  59  68 NW8       29.93R
EDEN PRAIRIE   CLOUDY    73  59  61 VRB7      29.92R
SOUTH ST PAUL  CLOUDY    72  57  60 N8        29.92R
LAKE ELMO      PTSUNNY   72  59  64 N8        29.93R
$$
MNZ001>005-007-008-013>017-022>024-027-028-231800-
   Northwest Minnesota

CITY           SKY/WX    TMP DP  RH WIND       PRES   REMARKS
BEMIDJI        CLOUDY    65  58  77 NE9       30.01R
HALLOCK        MOSUNNY   72  63  73 CALM      30.01S
ROSEAU         SUNNY     72  63  73 E6        30.02R
WARROAD        SUNNY     70  63  78 NE8       30.03S
CROOKSTON      PTSUNNY   70  61  73 N3        30.01S
FOSSTON        CLOUDY    70  66  88 NE7       30.01S
DETROIT LAKES  CLOUDY    68  59  73 N9        30.02R
MOORHEAD       CLOUDY    66  59  77 N6        30.02S
PARK RAPIDS    CLOUDY    70  58  65 N8        29.99R
MAHNOMEN       CLOUDY    69  60  72 NE8       30.00S
$$
MNZ006-009>011-018-025>026-231800-
   North Central Minnesota

CITY           SKY/WX    TMP DP  RH WIND       PRES   REMARKS
BAUDETTE       PTSUNNY   73  59  61 CALM      30.01R
FLAG ISLAND    SUNNY     73  59  60 CALM      30.01S
INTL FALLS     SUNNY     73  54  51 E6        29.99S
WASKISH        MOSUNNY   72  61  68 NE6       30.01R
BIG FORK       MOSUNNY   66  57  72 N5        30.00R
LONGVILLE      CLOUDY    66  61  82 N3        29.99R
GRAND RAPIDS   CLOUDY    62  58  86 NE6       30.01R
CRANE LAKE     SUNNY     68  55  64 E3        30.00R
ORR            MOSUNNY   66  55  68 CALM      29.97R
COOK           PTSUNNY   66  57  72 E7        29.99R
WALKER         CLOUDY    64  58  81 N6        30.00R
$$
MNZ012-019>021-037-231800-
   Northeast Minnesota

CITY           SKY/WX    TMP DP  RH WIND       PRES   REMARKS
DULUTH         CLOUDY    63  57  81 NE7       29.97R
ELY            CLOUDY    64  55  72 NE5       29.99R
HIBBING        CLOUDY    65  59  81 VRB6      29.98R
EVELETH        PTSUNNY   65  60  82 NE8       29.99R
DULUTH HARBOR  CLOUDY    63  59  88 CALM      29.97R
TWO HARBORS    CLOUDY    66  61  82 E3        29.95R
SILVER BAY     CLOUDY    64  61  88 N3        29.94R
GRAND MARAIS     N/A     63  57  81 E5        29.95R
G MARAIS ARPRT PTSUNNY   64  52  63 N10G16    29.98R
$$
MNZ029>031-032-039>041-046>048-054>057-064-231800-
   West Central Minnesota

CITY           SKY/WX    TMP DP  RH WIND       PRES   REMARKS
FERGUS FALLS   CLOUDY    66  59  77 NW8       30.01S
WHEATON        CLOUDY    66  55  68 NW9       30.04S
MORRIS         PTSUNNY   70  57  64 NW15      30.00S
ALEXANDRIA     PTSUNNY   69  58  67 NW10      30.01R
ELBOW LAKE     CLOUDY    66  60  80 W15       30.02R
WADENA         CLOUDY    72  57  60 N12       29.99R
GLENWOOD       MOSUNNY   70  57  64 NW12G18   30.00R
APPLETON       PTSUNNY   70  57  64 NW15      30.01R
BENSON         CLOUDY    70  57  64 N13G20    30.02R
ORTONVILLE     CLOUDY    68  59  73 N15G21    30.03R
MADISON        PTSUNNY   75  59  57 N14       30.02R
WILLMAR        PTSUNNY   72  61  68 NW14      30.00R
$$
MNZ033>034-036-042>043-049>051-058-059-231800-
   Central Minnesota

CITY           SKY/WX    TMP DP  RH WIND       PRES   REMARKS
ST CLOUD       CLOUDY    70  60  70 N13       29.96R
SAUK CENTRE    CLOUDY    69  58  67 N10       29.99R
PAYNESVILLE    CLOUDY    71  58  64 NW8       29.99R
AITKIN         CLOUDY    64  57  77 N8        29.97R
PINE RIVER     CLOUDY    66  59  77 N9        30.01R
BRAINERD       CLOUDY    68  58  70 N12       29.98R
STAPLES        CLOUDY    70  57  64 NW8       29.99R
LONG PRAIRIE   CLOUDY    68  57  68 NW8       30.00R
LITTLE FALLS   CLOUDY    68  55  64 NW9       29.98R
LITCHFIELD     CLOUDY    72  61  68 NW12      29.98R
BUFFALO        CLOUDY    71  57  60 NW7       29.96R
MAPLE LAKE     CLOUDY    71  61  71 NW8       29.97R
HUTCHINSON     CLOUDY    71  60  69 NW10      29.98R
$$
MNZ037-044-045-052-053-231800-
   East Central Minnesota

CITY           SKY/WX    TMP DP  RH WIND       PRES   REMARKS
PRINCETON      CLOUDY    72  61  68 N9        29.95R
MORA           CLOUDY    68  57  68 CALM      29.97R
CAMBRIDGE      PTSUNNY   72  57  60 NW5       29.93R
RUSH CITY      CLOUDY    68  60  75 N7        29.94R
MOOSE LAKE     CLOUDY    64  57  77 E6        29.95R
HINCKLEY       CLOUDY    66  61  82 N12       29.96R
CLOQUET        CLOUDY    64  55  72 N5        29.97R
MCGREGOR       CLOUDY    66  59  77 NW7       29.98R
$$
MNZ071>073-080-081-089-090-097-098-231800-
   Southwest Minnesota

CITY           SKY/WX    TMP DP  RH WIND       PRES   REMARKS
MONTEVIDEO     CLOUDY    72  61  68 N13       30.01R
GRANITE FALLS  CLOUDY    71  58  65 NW14G24   30.02R
CANBY          PTSUNNY   74  57  55 N14       30.03R
MARSHALL       PTSUNNY   70  60  70 N17       30.01R
REDWOOD FALLS  CLOUDY    71  58  63 NW10      29.98R
OLIVIA         PTSUNNY   72  59  64 N13       29.98R
PIPESTONE      MOSUNNY   75  57  53 N15G22    30.02S
WINDOM         SUNNY     72  59  64 NW15      30.00R
WORTHINGTON    MOSUNNY   73  58  59 NW14      30.02R
JACKSON        MOSUNNY   72  59  64 NW17G23   30.00R
SLAYTON        RAIN      72  58  63 NW14      30.02S
$$
MNZ065>067-074>077-082>085-091>093-231800-
   South Central Minnesota

CITY           SKY/WX    TMP DP  RH WIND       PRES   REMARKS
MANKATO        PTSUNNY   73  60  63 NW16      29.95R
NEW ULM        PTSUNNY   73  57  56 NW14G20   29.96S
ST JAMES       MOSUNNY   73  61  64 NW12G20   29.98R
FAIRMONT       MOSUNNY   74  60  61 NW17G23   29.97S
GLENCOE        CLOUDY    72  63  72 N10       29.95S
FARIBAULT      PTSUNNY   72  59  64 NW8G17    29.94R
OWATONNA       PTSUNNY   73  61  64 NW14      29.94R
WASECA         MOSUNNY   72  59  64 W14       29.95S
ALBERT LEA     MOSUNNY   73  61  64 NW9       29.94S
$$
MNZ078>079-086>088-094>096-231800-
   Southeast Minnesota

CITY           SKY/WX    TMP DP  RH WIND       PRES   REMARKS
ROCHESTER      PTSUNNY   73  61  65 NW17      29.92R
RED WING       CLOUDY    73  57  56 N6        29.90R
STANTON        CLOUDY    74  59  59 NW9       29.92R
DODGE CENTER   MOSUNNY   73  59  60 NW14      29.93R
WINONA         SUNNY     77  61  57 N13G18    29.88R
AUSTIN         SUNNY     73  57  56 NW14G22   29.93R
PRESTON        SUNNY     74  60  61 NW15      29.91R
$$
ABBREVIATIONS USED IN REMARKS
   TC - TEMPERATURES IN CELSIUS
  WCI - WIND CHILL INDEX
   HX - HEAT INDEX
  VSB - VISIBILITY
$$



USA.gov is the U.S. government's official web portal to all federal, state and local government web resources and services.